Weather in Yuledur

Russia / Mari El Republic     56°48′32″N   49°10′42″E
temp.,
°C
wind,
m/s
gust,
m/s
humid.,
%
clouds,
%
prec.,
mm/h
press.,
hPa
HPBL,
m
11 may, tue
tue1100:00+12n5798100 0.4 1023181
03:00+10n479894 0.4 1025177
06:00+12nne5796100 0.0 1026245
09:00+16ne458274 0.0 1027465
12:00+20ne346210 0.0 1027796
15:00+22ne445766 0.0 10271068
18:00+20nne367150 0.0 1027212
21:00+14ne389151 0.4 1028154
12 may, wed
wed1200:00+13ne389320 0.1 1029143
03:00+12ene36945 0.1 1029106
06:00+15ene34855 0.0 1029142
09:00+20e34594 0.0 1029504
12:00+24ese46380 0.0 10282208
15:00+24se45355 0.0 10272564
18:00+22se22524 0.0 102730
21:00+17ese225827 0.0 102711
13 may, thu
thu1300:00+15ese2259100 0.0 102711
03:00+14ese2260100 0.0 102711
06:00+16ese256552 0.0 1027133
09:00+22se464912 0.0 1027703
12:00+24sse5638100 0.0 10261816
15:00+24sse564071 0.0 10251653
18:00+20sse1259100 0.0 102425
21:00+16se33639 0.0 102444
14 may, fri
fri1400:00+15sse356899 0.0 102485
03:00+13sse3778100 0.2 1024110
06:00+15sse3879100 0.7 1024206
09:00+21sse595115 0.7 1022597
12:00+24s684251 0.0 10211163
15:00+25ssw5849100 0.0 10211543
18:00+22ssw366489 0.0 1020146
21:00+18s337570 0.0 102040
15 may, sat
sat1500:00+16s347030 0.0 102060
03:00+15s35735 0.0 102174
06:00+17s410665 0.0 1020257
09:00+23s59443 0.0 1019586
12:00+26s69356 0.0 10191096
15:00+27ssw68355 0.0 10181468
18:00+23s59495 0.0 1017252
21:00+18s412625 0.0 1017221